Regional Weather Roundup
Issued by NWS

Home | Current Version | Previous Version | Text Only | Print | Product List | Glossary Off
Versions: 1 2 3 4 5 6 7 8 9 10 11 12 13 14 15 16 17 18 19 20 21 22 23 24 25 26 27 28 29 30 31 32 33 34 35 36 37 38 39 40 41 42 43 44 45 46 47 48 49 50

000
ASUS43 KOAX 120510
RWRNE

WEATHER ROUNDUP FOR NEBRASKA
NATIONAL WEATHER SERVICE OMAHA NE
1100 PM CST MON DEC 11 2017

NOTES: SATELLITE DATA IS BEING USED TO AUGMENT CLOUD COVER ABOVE
       12000 FEET.
       "FAIR" INDICATES FEW OR NO CLOUDS BELOW 12,000 FEET WITH NO
       SIGNIFICANT WEATHER AND/OR OBSTRUCTIONS TO VISIBILITY.


NEZ001>004-019>022-054>056-120600-
NEBRASKA PANHANDLE

CITY           SKY/WX    TMP DP  RH WIND       PRES   REMARKS
SCOTTSBLUFF    CLOUDY    27  14  58 W6        30.41S WCI  20
ALLIANCE       CLOUDY    15   9  76 W3        30.40R
CHADRON        CLOUDY    17  13  84 CALM      30.41F
GORDON         FAIR      24  21  89 W5        30.39R WCI  18
KIMBALL        CLOUDY    27  12  52 NW9       30.42S WCI  18
SIDNEY         CLOUDY    21  10  62 W12       30.42S WCI   9
$$

NEZ057>060-069>072-079>082-120600-
SOUTHWEST NEBRASKA

CITY           SKY/WX    TMP DP  RH WIND       PRES   REMARKS
NORTH PLATTE   CLEAR     23  19  85 NW8       30.40R WCI  14
IMPERIAL       CLEAR     27  17  66 NW9       30.42S WCI  18
LEXINGTON      CLOUDY    39  28  65 N8        30.38R WCI  33
MCCOOK         CLEAR     28  22  78 W10       30.41R WCI  19
OGALLALA       CLOUDY    18  13  81 SW7       30.42S WCI   9
$$

NEZ005>010-023>029-035>040-094-120600-
NORTH CENTRAL NEBRASKA

CITY           SKY/WX    TMP DP  RH WIND       PRES   REMARKS
VALENTINE      CLOUDY    38  27  64 NW8       30.37S WCI  32
AINSWORTH      CLOUDY    35  33  92 NW8       30.37R WCI  28
BROKEN BOW     CLOUDY    38  30  73 N9        30.37R WCI  31
O`NEILL        CLEAR     24  23  96 N5        30.37R WCI  18
ORD            CLEAR     30  27  88 N7        30.35R WCI  23
THEDFORD       CLOUDY    38  28  68 NW10G17   30.38S WCI  31
$$

NEZ041-046>049-061>064-073>077-083>087-120600-
SOUTH CENTRAL NEBRASKA

CITY           SKY/WX    TMP DP  RH WIND       PRES   REMARKS
GRAND ISLAND   CLEAR     32  24  72 NW9       30.37R WCI  24
AURORA         CLEAR     32  22  68 N10       30.35R WCI  24
HASTINGS       CLEAR     33  26  75 NW10      30.37R WCI  25
HEBRON         CLEAR     36  25  65 N8        30.36R WCI  30
HOLDREGE       CLOUDY    37  31  79 N6        30.37S WCI  32
KEARNEY        CLOUDY    37  29  72 N12       30.37S WCI  29
YORK           CLEAR     30  25  80 N7        30.35R WCI  23
$$

NEZ011>018-030>034-042>045-120600-
NORTHEAST NEBRASKA

CITY           SKY/WX    TMP DP  RH WIND       PRES   REMARKS
NORFOLK        PTCLDY    25  21  85 N14       30.35R WCI  13
ALBION         CLEAR     29  26  86 N8        30.36R WCI  21
BLAIR          CLEAR     27  19  71 NW17G24   30.31R WCI  15
COLUMBUS       PTCLDY    29  24  82 NW16      30.36R WCI  17
FREMONT        CLEAR     27  20  73 NW9       30.35R WCI  18
TEKAMAH        CLEAR     24  16  71 N15       30.35R WCI  11
WAYNE          CLEAR     22  15  75 N12       30.36R WCI  10
$$

NEZ050>053-065>068-078-088>093-120600-
SOUTHEAST NEBRASKA

CITY           SKY/WX    TMP DP  RH WIND       PRES   REMARKS
LINCOLN        CLEAR     32  26  78 N15       30.36R WCI  22
OMAHA EPPLEY   CLEAR     28  18  66 N17G26    30.32R WCI  16
BEATRICE       CLEAR     34  28  79 N10       30.33R WCI  26
FALLS CITY     CLEAR     32  19  58 NW15      30.30R WCI  22
NEBRASKA CITY  CLEAR     31  21  66 N18G26    30.30R WCI  19
PLATTSMOUTH    CLEAR     28  18  64 NW13      30.31R WCI  18
$$

NEZ044-045-051>053-067-120600-
OMAHA AREA

CITY           SKY/WX    TMP DP  RH WIND       PRES   REMARKS
OMAHA EPPLEY   CLEAR     28  18  66 N17G26    30.32R WCI  16
BLAIR          CLEAR     27  19  71 NW17G24   30.31R WCI  15
FREMONT        CLEAR     27  20  73 NW9       30.35R WCI  18
MILLARD        CLEAR     30  20  65 NW12G22   30.33R WCI  21
OFFUTT AFB     CLEAR     29  16  57 NW17G23   30.31R WCI  17
PLATTSMOUTH    CLEAR     28  18  64 NW13      30.31R WCI  18
WAHOO          FAIR      28  20  70 N17       30.34R WCI  16
$$




USA.gov is the U.S. government's official web portal to all federal, state and local government web resources and services.